DW9840 Weather Reports


time (UTC)temp
C
wind
direction
speed
KPH
gust
KPH
rain 1hr
cm
rain 24hr
cm
rain mn
cm
humidity
%
barometer
mb
20260509090103 11 167 0.0 0.0 0.00 0.00 0.00 3 1014.5
20260509084541 11 167 0.0 0.0 0.00 0.00 0.00 3 1014.6
20260509083036 11 167 0.0 0.0 0.00 0.00 0.00 3 1014.6
20260509081532 12 167 0.0 0.0 0.00 0.00 0.00 3 1014.6
20260509080027 12 167 0.0 0.0 0.00 0.00 0.00 3 1014.7
20260509074523 12 167 0.0 0.0 0.00 0.00 0.00 3 1014.7
20260509073020 12 167 0.0 0.0 0.00 0.00 0.00 3 1014.8
20260509071514 12 167 0.0 0.0 0.00 0.00 0.00 3 1014.9
20260509070010 12 167 0.0 0.0 0.00 0.00 0.00 3 1014.9
20260509064557 13 167 0.0 0.0 0.00 0.00 0.00 3 1015.0
20260509063044 13 167 0.0 0.0 0.00 0.00 0.00 3 1015.0
20260509061522 13 167 0.0 0.0 0.00 0.00 0.00 3 1015.1
20260509060018 13 135 0.0 0.0 0.00 0.00 0.00 3 1015.1
20260509054611 13 219 0.0 0.0 0.00 0.00 0.00 3 1015.1
20260509053059 14 219 0.0 0.0 0.00 0.00 0.00 3 1015.3
20260509051531 14 219 0.0 0.0 0.00 0.00 0.00 3 1015.1
20260509050029 14 219 0.0 0.0 0.00 0.00 0.00 3 1015.1
20260509044506 14 219 0.0 0.0 0.00 0.00 0.00 3 1014.9
20260509043002 15 219 0.0 0.0 0.00 0.00 0.00 3 1014.8
20260509041539 15 219 0.0 0.0 0.00 0.00 0.00 3 1014.7
20260509040041 15 219 0.0 0.0 0.00 0.00 0.00 9 1014.7
20260509034513 15 169 0.0 0.0 0.00 0.00 0.00 23 1014.6
20260509033009 15 214 0.0 0.0 0.00 0.00 0.00 35 1014.5
20260509031604 16 219 0.0 0.0 0.00 0.00 0.00 48 1014.3
20260509030043 16 195 0.0 0.0 0.00 0.00 0.00 56 1014.1
20260509024525 16 193 0.0 0.0 0.00 0.00 0.00 61 1014.2
20260509023024 17 200 0.0 0.0 0.00 0.00 0.00 63 1014.1
20260509021518 17 229 0.0 3.2 0.00 0.00 0.00 63 1014.1
20260509020014 18 217 0.0 3.2 0.00 0.00 0.00 63 1014.0
20260509014517 18 218 0.0 6.4 0.00 0.00 0.00 63 1014.1
20260509013005 18 203 0.0 8.0 0.00 0.00 0.00 63 1014.1
20260509011559 18 266 1.6 9.7 0.00 0.00 0.00 63 1014.3
20260509010059 19 141 0.0 11.3 0.00 0.00 0.00 62 1014.4
20260509004533 20 139 0.0 16.1 0.00 0.00 0.00 62 1014.3
20260509003027 20 219 0.0 9.7 0.00 0.00 0.00 62 1014.5
20260509001505 20 223 0.0 14.5 0.00 0.00 0.00 62 1014.5
20260509000057 20 236 3.2 19.3 0.00 0.00 0.00 61 1014.6
20260508234535 21 218 3.2 16.1 0.00 0.00 0.00 60 1014.8
20260508233031 21 193 1.6 12.9 0.00 0.00 0.00 61 1014.8
20260508231509 21 248 0.0 14.5 0.00 0.00 0.00 60 1015.1
20260508230005 21 245 0.0 16.1 0.00 0.00 0.00 60 1015.3
20260508224550 21 166 0.0 12.9 0.00 0.00 0.00 59 1015.5
20260508223043 21 203 0.0 12.9 0.00 0.00 0.00 60 1015.8
20260508221538 21 224 1.6 14.5 0.00 0.00 0.00 60 1016.0
20260508220106 21 187 0.0 16.1 0.00 0.00 0.00 60 1016.1
20260508214530 21 217 1.6 17.7 0.00 0.00 0.00 60 1016.2
20260508213026 22 248 0.0 16.1 0.00 0.00 0.00 60 1016.3
20260508211524 22 200 1.6 16.1 0.00 0.00 0.00 59 1016.4
20260508210018 22 233 1.6 17.7 0.00 0.00 0.00 59 1016.6
20260508204604 22 198 0.0 8.0 0.00 0.00 0.00 59 1016.5
20260508203049 22 214 0.0 6.4 0.00 0.00 0.00 59 1016.7
20260508201533 21 197 0.0 6.4 0.00 0.00 0.00 59 1017.0
20260508200024 21 146 0.0 3.2 0.00 0.00 0.00 59 1017.2
20260508194502 20 195 0.0 6.4 0.00 0.00 0.00 60 1017.3
20260508193106 20 202 0.0 1.6 0.00 0.00 0.00 59 1017.5
20260508191554 20 226 0.0 3.2 0.00 0.00 0.00 59 1017.6
20260508190042 20 200 0.0 4.8 0.00 0.00 0.00 59 1017.7
20260508184542 20 195 0.0 0.0 0.00 0.00 0.00 59 1017.7
20260508183028 19 239 0.0 0.0 0.00 0.00 0.00 59 1017.9
20260508181532 20 191 0.0 6.4 0.00 0.00 0.00 58 1017.9
20260508180020 19 134 0.0 0.0 0.00 0.00 0.00 58 1018.1
20260508174527 18 224 0.0 0.0 0.00 0.00 0.00 58 1018.1
20260508173009 18 134 0.0 4.8 0.00 0.00 0.00 57 1018.0
20260508171505 18 260 0.0 0.0 0.00 0.00 0.00 53 1018.0
20260508170044 17 180 0.0 0.0 0.00 0.00 0.00 48 1018.0
20260508164540 18 233 0.0 0.0 0.00 0.00 0.00 12 1018.0
20260508163029 18 122 0.0 0.0 0.00 0.00 0.00 3 1018.0
20260508161520 16 211 0.0 0.0 0.00 0.00 0.00 3 1018.1
20260508160052 14 129 0.0 0.0 0.00 0.00 0.00 3 1017.8
20260508154547 13 121 0.0 0.0 0.00 0.00 0.00 3 1017.9
20260508153025 13 198 0.0 0.0 0.00 0.00 0.00 3 1018.0
20260508151521 12 205 0.0 0.0 0.00 0.00 0.00 3 1017.9
20260508150059 12 173 0.0 0.0 0.00 0.00 0.00 3 1017.8
20260508144600 12 222 0.0 0.0 0.00 0.00 0.00 3 1017.7
20260508143035 12 181 0.0 0.0 0.00 0.00 0.00 3 1017.6
20260508141529 11 181 0.0 0.0 0.00 0.00 0.00 3 1017.5
20260508140015 -17 0.0 0.0 0.00 0.00 0.00 1017.5
20260508134502 -17 0.0 0.0 0.00 0.00 0.00 1017.4
20260508133041 -17 0.0 0.0 0.00 0.00 0.00 1017.3
20260508131536 -17 0.0 0.0 0.00 0.00 0.00 1017.3
20260508130015 -17 0.0 0.0 0.00 0.00 0.00 1017.1
20260508124511 -17 0.0 0.0 0.00 0.00 0.00 1017.0
20260508123103 -17 0.0 0.0 0.00 0.00 0.00 1017.0
20260508121545 -17 0.0 0.0 0.00 0.00 0.00 1017.1
20260508120023 11 354 0.0 0.0 0.00 0.00 0.00 3 1016.9
20260508114518 12 354 0.0 0.0 0.00 0.00 0.00 3 1017.1
20260508113103 12 354 0.0 0.0 0.00 0.00 0.00 3 1017.1
20260508111552 12 307 0.0 0.0 0.00 0.00 0.00 3 1017.2
20260508110034 12 115 0.0 0.0 0.00 0.00 0.00 3 1017.4
20260508104530 12 162 0.0 0.0 0.00 0.00 0.00 3 1017.3
20260508103033 12 141 0.0 0.0 0.00 0.00 0.00 3 1017.2
20260508101522 12 223 0.0 0.0 0.00 0.00 0.00 3 1017.1
20260508100019 12 225 0.0 0.0 0.00 0.00 0.00 3 1017.2
20260508094512 12 163 0.0 0.0 0.00 0.00 0.00 3 1017.0
20260508093008 12 232 0.0 0.0 0.00 0.00 0.00 3 1016.9
20260508091505 12 233 0.0 4.8 0.00 0.00 0.00 3 1017.1